{"data":{"norad_id":64723,"intl_designator":"2025-143A","name":"MTG-S1","alt_names":[],"object_type":"PAYLOAD","status":"ACTIVE","operator":null,"country":"EUME","launch_date":"2025-07-01","launch_site_code":"AFETR","launch_vehicle":null,"mission":null,"orbit_class":"UNKNOWN","rcs_meters":null,"size_class":null,"mass_kg":null,"dimensions":null,"purposes":["comms","earth_obs"],"wikipedia_slug":null,"has_3d_model":false,"image_url":null,"decayed_at":null,"tle_current":{"epoch":"2026-09-19T16:58:13.822752Z","epoch_age_seconds":83002,"freshness":"FRESH","line1":"1 64723U 25143A   26262.70710443 -.00000011  00000+0  00000+0 0  9992","line2":"2 64723   0.6198 341.5146 0003562 252.7697  18.6250  1.00272587  4363","mean_motion":1.00272587,"eccentricity":0.0003562,"inclination_deg":0.6198,"raan_deg":341.5146,"arg_perigee_deg":252.7697,"mean_anomaly_deg":18.625,"bstar":0,"rev_number":436,"period_min":1436.0854178421,"perigee_km":35771.351135535,"apogee_km":35801.389130417,"semimajor_km":42164.507132976,"source":"CELESTRAK","updated_at":"2026-09-20T09:00:35.345364Z"}}}